Tracking 19193 objects as of 22-Jun-2018
HD Live streaming from Space Station
objects crossing your sky now

OPS 0757 (TACSAT)

Track OPS 0757 (TACSAT) now!
OPS 0757 (TACSAT) is classified as:


NORAD ID: 3691
Int'l Code: 1969-013A
Perigee: 35,680.2 km
Apogee: 35,826.5 km
Inclination: 4.3 °
Period: 1,434.0 minutes
Semi major axis: 42124 km
RCS: 1 m2 (large)
Launch date: February 9, 1969
Source: United States (US)
Launch site: AIR FORCE EASTERN TEST RANGE (AFETR)
aabbcc
Your satellite tracking list
Your tracking list is empty




NASA's NSSDC Master Catalog

Two Line Element Set (TLE):
1  3691U 69013A   18172.67800375 +.00000119 +00000-0 +00000-0 0  9994
2  3691 004.2612 298.8562 0017371 260.5628 152.1889 01.00416083084812
Source of the keplerian elements: AFSPC